Weather in Preko

Croatia     44°04′52″N   15°10′57″E
В апреле 2022 года жителям России запретили посещать сайт meteo.paraplan.net по решению Генеральной прокуратуры. Аудитория сайта уменьшилась в 10 раз. Владельцы сайта не видят смысла в поддержке погодного сервера в таких условиях. Сайт будет закрыт в октябре.
temp.,
°C
wind,
m/s
gust,
m/s
humid.,
%
clouds,
%
prec.,
mm/h
press.,
hPa
HPBL,
m
30 september, fri
fri3023:00+20w7867100 1.9 1004402
02:00+17nne6687100 3.1 1005354
05:00+17n228195 1.5 1005137
08:00+18ene3373100 2.0 1008121
11:00+21e4465100 0.0 1010292
14:00+21se3473100 1.1 1012323
17:00+22se111475100 0.1 1011656
20:00+21se121775100 0.8 1012669
1 october, sat
sat123:00+22sse11157944 1.4 1012348
02:00+22sse9118098 3.6 1013331
05:00+21sse6887100 2.1 1014356
08:00+21sse458416 4.1 1016372
11:00+21se117767 2.4 1016270
14:00+21nnw757690 3.6 1016570
17:00+20nnw457326 0.1 1016350
20:00+19nnw45745 0.1 1016335
2 october, sun
sun223:00+19nw46745 0.0 1017469
02:00+19nw45742 0.2 1018631
05:00+19nw35737 0.1 1018736
08:00+19nnw56710 0.1 1019752
11:00+20nw56670 0.0 1021683
14:00+20nw66682 0.0 1020640
17:00+20nw67695 0.0 1020532
20:00+19nnw67695 0.0 1020338
3 october, mon
mon323:00+20nw44715 0.0 1020303
02:00+19nw44745 0.0 1019384
05:00+19nnw337516 0.0 1018376
08:00+18nne12725 0.0 1018206
11:00+19nne11635 0.0 1019292
14:00+20wnw22613 0.0 1018424
17:00+20nw44670 0.0 1017303
20:00+20nnw55695 0.0 1018272
4 october, tue
tue423:00+20nne34676 0.0 1018151
02:00+18ne46635 0.0 1018182
05:00+18ne35630 0.0 1018156
08:00+18nne34615 0.0 1018141
11:00+20n12525 0.0 1019278
14:00+21wnw33525 0.0 1019476
17:00+21nw446097 0.0 1019283
20:00+20nw4469100 0.0 1019266